^^
WesterhopeWX Station Historical Data
 
Daily Summary for December 18, 2018 Units:  Metric    English   Both
Daily Weekly Monthly Yearly Custom
  Current: High: Low: Average:
Temperature: 6.8 °C 6.8 °C 6.6 °C 6.7 °C
Dew Point: 5.4 °C 5.4 °C 5.0 °C 5.2 °C
Humidity: 91% 91% 89% 90%
Wind Speed: 3.2km/h 13.0km/h 0.0km/h 2.7km/h
Wind Gust: 4.8km/h 14.5km/h - -
WindSW - - SSW
Pressure: 1007.0 hPa 1008.0 hPa 1007.0 hPa -
Precipitation: 0.0 mm      
Historical Graphs
 
 
Tabular Data for December 18, 2018
Time Temperature Dew Point Pressure Wind Wind Speed Wind Gust Humidity Rainfall Rate (Hourly) solar
00:04 6.7 °C 5.0 °C 1008.0 hPa WSW 13.0 km/h 12.9 km/h 89% 0.0 mm 0.00 W/m2
00:09 6.7 °C 5.2 °C 1008.0 hPa SSE 3.2 km/h 12.9 km/h 90% 0.0 mm 0.00 W/m2
00:14 6.7 °C 5.0 °C 1008.0 hPa South 4.7 km/h 9.7 km/h 89% 0.0 mm 0.00 W/m2
00:19 6.7 °C 5.0 °C 1008.0 hPa SW 1.4 km/h 12.9 km/h 89% 0.0 mm 0.00 W/m2
00:24 6.7 °C 5.2 °C 1008.0 hPa SSE 1.4 km/h 6.4 km/h 90% 0.0 mm 0.00 W/m2
00:29 6.7 °C 5.2 °C 1008.0 hPa SW 1.4 km/h 3.2 km/h 90% 0.0 mm 0.00 W/m2
00:34 6.7 °C 5.2 °C 1007.7 hPa Calm   4.8 km/h 90% 0.0 mm 0.00 W/m2
00:39 6.7 °C 5.2 °C 1007.7 hPa NW 1.4 km/h 3.2 km/h 90% 0.0 mm 0.00 W/m2
00:44 6.7 °C 5.2 °C 1007.3 hPa SSE 3.2 km/h 9.7 km/h 90% 0.0 mm 0.00 W/m2
00:49 6.7 °C 5.2 °C 1007.3 hPa Calm   3.2 km/h 90% 0.0 mm 0.00 W/m2
00:54 6.6 °C 5.1 °C 1007.3 hPa SW 3.2 km/h 3.2 km/h 90% 0.0 mm 0.00 W/m2
00:59 6.7 °C 5.2 °C 1007.3 hPa South 1.4 km/h 6.4 km/h 90% 0.0 mm 0.00 W/m2
01:04 6.8 °C 5.3 °C 1007.3 hPa South 1.4 km/h 8.0 km/h 90% 0.0 mm 0.00 W/m2
01:09 6.8 °C 5.3 °C 1007.3 hPa SW 4.7 km/h 14.5 km/h 90% 0.0 mm 0.00 W/m2
01:14 6.7 °C 5.2 °C 1007.3 hPa SSW 3.2 km/h 11.3 km/h 90% 0.0 mm 0.00 W/m2
01:19 6.7 °C 5.2 °C 1007.7 hPa SSE 1.4 km/h 6.4 km/h 90% 0.0 mm 0.00 W/m2
01:24 6.7 °C 5.2 °C 1007.3 hPa Calm   3.2 km/h 90% 0.0 mm 0.00 W/m2
01:29 6.7 °C 5.2 °C 1007.3 hPa ENE 3.2 km/h 6.4 km/h 90% 0.0 mm 0.00 W/m2
01:34 6.6 °C 5.1 °C 1007.0 hPa ENE 1.4 km/h 6.4 km/h 90% 0.0 mm 0.00 W/m2
01:39 6.6 °C 5.1 °C 1007.0 hPa West 1.4 km/h 4.8 km/h 90% 0.0 mm 0.00 W/m2
01:44 6.7 °C 5.3 °C 1007.0 hPa SW 1.4 km/h 8.0 km/h 91% 0.0 mm 0.00 W/m2
01:49 6.7 °C 5.3 °C 1007.0 hPa SSE 6.4 km/h 6.4 km/h 91% 0.0 mm 0.00 W/m2
01:54 6.8 °C 5.4 °C 1007.0 hPa WSW 3.2 km/h 3.2 km/h 91% 0.0 mm 0.00 W/m2
01:59 6.8 °C 5.4 °C 1007.0 hPa SW 3.2 km/h 4.8 km/h 91% 0.0 mm 0.00 W/m2
Westerhope, Newcastle upon Tyne, UK
Compliments of Weather Underground - 4 mb